Total_Precipitation_Accumulation
0.77 0.84 1.22 1.18 1.13 1.12 1.22 1.38 1.51 1.58 1.41 1.32 1.36 1.39 1.47 1.75 1.76 1.70 1.69 1.88 2.35 2.90 3.34 3.39 3.17 2.98 3.15 3.19 2.70 2.22 1.99 2.02 2.02 2.00 1.89 1.80 1.86 2.05 2.16 2.33 2.41 1.77 1.58
0.56 0.76 1.03 1.01 0.96 1.00 1.03 1.10 1.20 1.29 1.27 1.25 1.25 1.29 1.43 1.67 1.73 1.70 1.70 1.88 2.19 2.63 2.89 2.79 2.63 2.58 2.57 2.44 2.22 2.10 2.06 2.14 2.29 2.29 2.33 2.13 2.19 2.28 2.20 2.23 2.37 1.72 1.59
0.54 0.53 0.65 0.83 0.76 0.78 0.78 0.86 0.99 1.14 1.21 1.23 1.11 1.22 1.43 1.65 1.79 1.93 1.95 1.99 2.19 2.52 2.67 2.53 2.35 2.33 2.25 2.17 2.00 1.99 2.02 2.22 2.53 2.70 2.92 2.15 1.69 2.19 2.16 2.13 1.94 1.56 1.46
0.42 0.32 0.40 0.62 0.70 0.69 0.73 0.82 0.90 0.99 1.10 1.10 1.04 1.10 1.29 1.56 1.81 2.04 2.10 2.05 2.11 2.36 2.64 2.53 2.46 2.36 2.23 2.04 1.95 2.00 2.09 2.33 2.61 2.93 2.74 1.89 1.29 1.63 1.84 1.81 1.63 1.33 1.28
0.31 0.28 0.41 0.53 0.57 0.57 0.61 0.76 0.87 0.98 1.06 1.10 1.03 1.08 1.19 1.50 1.84 1.99 2.00 2.01 2.00 2.17 2.38 2.45 2.32 2.05 1.98 1.89 2.00 2.14 2.28 2.55 2.78 2.65 1.93 1.91 1.85 1.74 1.58 1.53 1.51 1.31 1.23
0.27 0.24 0.36 0.51 0.52 0.54 0.61 0.70 0.82 0.91 1.05 1.17 1.11 1.13 1.26 1.53 1.80 1.92 1.76 1.73 1.84 1.89 1.96 2.08 2.00 1.77 1.80 1.94 2.10 2.24 2.45 2.66 2.62 1.93 1.54 1.62 1.55 1.63 1.61 1.54 1.43 1.31 1.22
0.22 0.27 0.35 0.49 0.52 0.55 0.60 0.66 0.81 0.95 1.12 1.26 1.24 1.25 1.35 1.59 1.84 1.88 1.70 1.83 1.84 1.81 1.82 1.82 1.83 1.85 2.07 2.14 2.16 2.22 2.46 2.61 2.02 1.64 1.68 1.77 1.53 1.53 1.80 1.81 1.56 1.31 1.08
0.21 0.25 0.35 0.47 0.51 0.59 0.70 0.77 0.88 1.04 1.17 1.25 1.24 1.21 1.29 1.54 1.76 1.72 1.69 1.82 1.72 1.77 1.75 1.65 1.61 1.69 1.92 2.11 2.07 2.14 2.32 2.24 1.61 1.40 1.52 1.62 1.34 1.48 1.91 1.93 1.73 1.54 1.25
0.32 0.36 0.41 0.43 0.48 0.60 0.74 0.92 1.04 1.11 1.22 1.21 1.20 1.20 1.33 1.40 1.55 1.62 1.64 1.72 1.72 1.76 1.59 1.47 1.52 1.52 1.64 1.93 1.96 2.03 2.17 2.10 1.63 1.45 1.30 1.43 1.28 1.54 1.91 1.83 1.66 1.61 1.39
0.57 0.60 0.55 0.49 0.53 0.58 0.66 0.94 1.16 1.20 1.22 1.19 1.26 1.32 1.51 1.52 1.48 1.51 1.45 1.54 1.59 1.57 1.52 1.53 1.51 1.51 1.62 1.87 2.09 2.16 2.12 1.80 1.50 1.41 1.38 1.30 1.33 1.71 1.98 1.88 1.78 1.75 1.59
0.86 0.92 0.80 0.75 0.67 0.72 0.78 0.93 1.15 1.17 1.22 1.34 1.44 1.56 1.86 2.01 1.79 1.79 1.56 1.69 1.68 1.65 1.68 1.72 1.69 1.72 1.72 1.91 2.23 2.21 1.86 1.69 1.82 1.51 1.39 1.34 1.57 1.94 2.10 2.09 2.05 2.02 1.93
1.13 0.98 0.98 1.02 0.88 0.96 1.02 1.17 1.53 1.45 1.49 1.70 1.83 1.84 2.16 2.26 2.17 1.70 1.81 2.12 2.17 2.17 2.11 2.11 2.20 2.17 1.87 1.70 2.02 2.32 1.91 1.82 1.84 1.53 1.32 1.43 1.70 2.05 2.18 2.22 2.06 2.07 2.05
1.28 1.15 1.28 1.30 1.24 1.33 1.60 1.41 1.55 1.79 1.96 2.03 2.20 2.38 2.50 2.14 1.96 1.84 2.06 2.36 2.43 2.40 2.30 2.37 2.58 2.37 2.28 2.27 2.33 2.38 2.07 1.96 1.87 1.54 1.60 1.79 1.99 2.34 2.49 2.36 2.21 2.12 1.98
1.84 1.84 1.79 1.84 1.91 1.93 1.75 1.73 1.63 1.68 1.83 2.08 2.32 2.30 2.44 2.50 2.43 2.27 2.35 2.35 2.38 2.48 2.72 2.63 2.75 2.83 2.82 2.57 2.45 2.49 2.31 2.14 2.03 1.95 2.13 2.27 2.29 2.58 2.80 2.59 2.39 2.24 2.10
2.62 2.75 2.70 2.59 2.46 2.51 2.49 2.31 1.91 2.01 1.95 1.95 2.31 2.40 2.46 2.60 2.67 2.58 2.47 2.54 2.27 2.29 2.63 2.96 2.82 2.90 3.03 2.86 2.55 2.43 2.44 2.28 2.20 2.08 2.25 2.42 2.30 2.36 2.66 2.70 2.65 2.46 2.37
3.41 3.86 3.62 3.41 3.11 3.00 3.00 2.88 2.74 2.40 2.30 2.10 2.30 2.40 2.59 2.77 2.85 2.79 2.61 2.60 2.27 2.16 2.40 2.71 2.74 2.94 2.94 2.92 2.53 2.28 2.22 2.33 2.30 2.14 2.21 2.45 2.43 2.19 2.31 2.65 2.90 2.93 2.76
4.05 4.60 4.36 4.23 4.16 3.91 3.79 3.39 2.92 2.61 2.43 2.56 2.67 2.74 2.85 2.94 3.03 2.95 2.80 2.58 2.43 2.45 2.53 2.54 2.65 3.06 2.88 2.74 2.55 2.46 2.38 2.38 2.26 2.16 2.16 2.34 2.16 2.07 2.07 2.22 2.60 2.93 3.19
4.21 4.62 4.97 4.66 5.01 4.93 4.66 4.16 3.59 3.31 3.20 3.05 2.98 3.05 2.88 2.90 2.91 3.05 2.74 2.44 2.57 2.70 2.81 2.81 2.81 3.02 3.04 3.11 2.98 2.79 2.55 2.42 1.94 1.87 1.91 2.00 2.17 1.89 2.03 2.26 2.42 2.60 3.12
4.48 4.99 5.48 5.70 5.78 5.36 4.99 4.58 4.25 4.03 3.76 3.31 2.87 2.70 2.58 2.41 2.26 2.35 2.20 2.13 2.21 2.35 2.33 2.19 2.53 2.78 2.92 3.07 2.81 2.63 2.27 2.12 1.94 1.83 1.85 1.65 1.81 1.89 1.97 2.08 2.32 2.39 2.88
4.62 5.44 5.87 6.00 5.62 5.20 4.83 4.37 4.18 3.87 3.52 3.13 2.70 2.39 2.20 2.11 1.88 1.95 1.77 1.74 1.95 2.16 2.25 2.38 2.57 2.52 2.43 2.54 2.21 2.08 1.91 1.69 1.75 1.80 1.64 1.59 1.57 1.59 1.80 2.02 2.26 1.97 2.49
4.69 5.61 5.96 5.73 5.16 4.71 4.29 3.81 3.43 3.11 2.86 2.74 2.44 2.12 2.03 1.95 1.91 2.09 1.81 1.99 2.03 2.12 2.17 2.16 2.26 2.19 1.96 2.09 2.42 2.23 1.80 1.61 1.62 1.56 1.55 1.63 1.47 1.55 1.80 2.04 2.24 2.32 2.13
4.05 4.79 5.08 4.76 4.13 3.54 3.26 3.11 2.93 2.83 2.51 2.33 2.24 2.14 1.86 1.85 1.83 1.83 1.92 1.70 1.75 1.90 1.86 1.90 2.20 2.15 1.86 1.94 2.29 2.42 2.14 2.09 1.82 1.35 1.42 1.56 1.53 1.64 1.79 1.88 2.21 2.47 2.38
3.51 3.50 3.60 3.51 3.02 2.67 2.58 2.57 2.52 2.60 2.42 2.19 2.07 1.94 1.69 1.61 1.53 1.57 1.60 1.65 1.76 1.69 1.77 1.86 1.96 2.08 1.97 1.79 1.86 2.33 2.26 2.07 1.86 1.61 1.43 1.41 1.54 1.76 1.84 1.96 2.02 2.14 2.23
2.63 2.43 2.42 2.51 2.34 2.28 2.19 2.22 2.10 1.96 1.92 1.84 1.85 1.80 1.69 1.56 1.48 1.37 1.41 1.46 1.62 1.61 1.83 1.62 1.70 1.93 1.96 1.74 1.76 1.89 1.92 1.95 1.99 1.77 1.50 1.37 1.40 1.52 1.72 1.76 1.94 2.10 2.15
1.73 1.76 1.93 2.20 2.23 2.11 2.04 2.16 2.18 1.90 1.74 1.67 1.69 1.77 1.68 1.56 1.46 1.33 1.36 1.46 1.54 1.59 1.62 1.63 1.86 1.84 1.78 1.75 1.76 1.82 1.88 1.88 1.78 1.79 1.71 1.47 1.37 1.26 1.42 1.66 1.89 2.09 2.05
1.16 1.28 1.49 1.90 2.10 1.95 1.89 1.95 1.93 1.86 1.79 1.67 1.58 1.61 1.60 1.55 1.54 1.53 1.44 1.53 1.51 1.52 1.53 1.55 1.69 1.73 1.76 1.82 1.72 1.67 1.83 1.91 1.83 1.86 1.76 1.54 1.40 1.19 1.22 1.43 1.77 2.07 2.13